FLOCK 1C-10

Last updated on Wed Feb 14 2018 16:18:35 GMT+0000 (Coordinated Universal Time)

1 40023U 14033P 18045.40014486 .00000735 00000-0 83791-4 0 9992 2 40023 97.9198 322.6592 0011502 229.7101 130.3070 14.89130779198544
UTC large
Height (km)
Speed (km/s)
/
Latitude / Longitude
Inclination (degrees)
Orbital Period (minutes)
Azimuth
Elevation
Range (km)
Doppler Factor

Next 0 passes for location: London (51.5072 / 0.1276)

Sorry there are no passes over London.